Time,TemperatureF,DewpointF,PressureIn,WindDirection,WindDirectionDegrees,WindSpeedMPH,WindSpeedGustMPH,Humidity,HourlyPrecipIn,Conditions,Clouds,dailyrainin,SoftwareType,DateUTC
2013-06-04 00:08:00,73.5,63.0,29.80,SSE,153,5.0,13.0,70,0.00,,,0.00,weatherlink.com 1.10,2013-06-04 05:08:00,
2013-06-04 00:23:00,73.4,63.0,29.79,SSE,150,10.0,15.0,70,0.00,,,0.00,weatherlink.com 1.10,2013-06-04 05:23:00,
2013-06-04 00:38:00,73.2,63.0,29.79,SE,143,10.0,17.0,70,0.00,,,0.00,weatherlink.com 1.10,2013-06-04 05:38:00,
2013-06-04 00:53:00,73.0,63.0,29.79,ESE,121,8.0,18.0,70,0.00,,,0.00,weatherlink.com 1.10,2013-06-04 05:53:00,
2013-06-04 01:08:00,73.0,63.0,29.79,SSE,148,8.0,16.0,70,0.00,,,0.00,weatherlink.com 1.10,2013-06-04 06:08:00,
2013-06-04 01:23:00,72.8,62.0,29.80,SSE,153,10.0,17.0,70,0.00,,,0.00,weatherlink.com 1.10,2013-06-04 06:23:00,
2013-06-04 01:38:00,72.4,63.0,29.80,SE,140,8.0,15.0,72,0.00,,,0.00,weatherlink.com 1.10,2013-06-04 06:38:00,
2013-06-04 01:53:00,72.1,63.0,29.80,SE,144,10.0,15.0,73,0.00,,,0.00,weatherlink.com 1.10,2013-06-04 06:53:00,
2013-06-04 02:08:00,71.8,63.0,29.80,SSE,150,6.0,12.0,74,0.00,,,0.00,weatherlink.com 1.10,2013-06-04 07:08:00,
2013-06-04 02:23:00,71.5,63.0,29.80,SE,126,6.0,15.0,75,0.00,,,0.00,weatherlink.com 1.10,2013-06-04 07:23:00,
2013-06-04 02:38:00,71.4,63.0,29.79,ESE,116,10.0,16.0,75,0.00,,,0.00,weatherlink.com 1.10,2013-06-04 07:38:00,
2013-06-04 02:53:00,71.0,63.0,29.78,SE,125,4.0,14.0,77,0.00,,,0.00,weatherlink.com 1.10,2013-06-04 07:53:00,
2013-06-04 03:08:00,70.7,63.0,29.78,SSE,148,8.0,12.0,77,0.00,,,0.00,weatherlink.com 1.10,2013-06-04 08:08:00,
2013-06-04 03:23:00,70.6,63.0,29.76,SE,130,6.0,16.0,78,0.00,,,0.00,weatherlink.com 1.10,2013-06-04 08:23:00,
2013-06-04 03:38:00,70.6,63.0,29.76,SE,131,11.0,17.0,78,0.00,,,0.00,weatherlink.com 1.10,2013-06-04 08:38:00,
2013-06-04 03:53:00,70.4,64.0,29.76,SE,134,8.0,16.0,79,0.00,,,0.00,weatherlink.com 1.10,2013-06-04 08:53:00,
2013-06-04 04:08:00,70.4,64.0,29.78,ESE,107,8.0,11.0,79,0.00,,,0.00,weatherlink.com 1.10,2013-06-04 09:08:00,
2013-06-04 04:23:00,70.3,64.0,29.77,ESE,119,10.0,15.0,80,0.00,,,0.00,weatherlink.com 1.10,2013-06-04 09:23:00,
2013-06-04 04:38:00,70.3,64.0,29.79,ESE,109,9.0,15.0,80,0.00,,,0.00,weatherlink.com 1.10,2013-06-04 09:38:00,
2013-06-04 04:53:00,70.1,64.0,29.80,ESE,119,7.0,12.0,81,0.00,,,0.00,weatherlink.com 1.10,2013-06-04 09:53:00,
2013-06-04 05:08:00,69.9,64.0,29.78,SE,125,5.0,13.0,82,0.00,,,0.00,weatherlink.com 1.10,2013-06-04 10:08:00,
2013-06-04 05:23:00,70.1,64.0,29.79,SE,125,7.0,13.0,81,0.00,,,0.00,weatherlink.com 1.10,2013-06-04 10:23:00,
2013-06-04 05:39:00,70.5,64.0,29.79,ESE,120,14.0,17.0,81,0.00,,,0.00,weatherlink.com 1.10,2013-06-04 10:39:00,
2013-06-04 05:54:00,70.2,65.0,29.78,SE,128,13.0,15.0,82,0.00,,,0.00,weatherlink.com 1.10,2013-06-04 10:54:00,
2013-06-04 06:09:00,70.4,64.0,29.79,SE,138,9.0,16.0,81,0.00,,,0.00,weatherlink.com 1.10,2013-06-04 11:09:00,
2013-06-04 06:24:00,70.4,65.0,29.81,SE,136,7.0,11.0,82,0.00,,,0.00,weatherlink.com 1.10,2013-06-04 11:24:00,
2013-06-04 06:39:00,70.6,65.0,29.85,ESE,115,0.0,9.0,81,0.00,,,0.00,weatherlink.com 1.10,2013-06-04 11:39:00,
2013-06-04 06:54:00,70.4,65.0,29.91,North,350,10.0,26.0,82,0.00,,,0.00,weatherlink.com 1.10,2013-06-04 11:54:00,
2013-06-04 07:09:00,69.8,65.0,29.94,NNW,342,13.0,27.0,85,0.14,,,0.14,weatherlink.com 1.10,2013-06-04 12:09:00,
2013-06-04 07:24:00,67.6,65.0,29.98,North,355,12.0,17.0,91,0.47,,,0.47,weatherlink.com 1.10,2013-06-04 12:24:00,
2013-06-04 07:39:00,67.2,65.0,29.98,NNE,16,2.0,14.0,93,0.59,,,0.59,weatherlink.com 1.10,2013-06-04 12:39:00,
2013-06-04 07:54:00,67.0,65.0,29.97,NNE,26,12.0,15.0,94,0.65,,,0.65,weatherlink.com 1.10,2013-06-04 12:54:00,
2013-06-04 08:09:00,66.8,65.0,29.91,ENE,67,13.0,24.0,94,0.51,,,0.68,weatherlink.com 1.10,2013-06-04 13:09:00,
2013-06-04 08:24:00,67.0,65.0,29.90,ESE,109,10.0,17.0,94,0.22,,,0.69,weatherlink.com 1.10,2013-06-04 13:24:00,
2013-06-04 08:39:00,66.9,65.0,29.88,ESE,113,16.0,21.0,94,0.10,,,0.69,weatherlink.com 1.10,2013-06-04 13:39:00,
2013-06-04 08:54:00,67.0,65.0,29.88,SE,131,9.0,21.0,94,0.04,,,0.69,weatherlink.com 1.10,2013-06-04 13:54:00,
2013-06-04 09:09:00,67.4,66.0,29.86,ESE,119,13.0,18.0,94,0.01,,,0.69,weatherlink.com 1.10,2013-06-04 14:09:00,
2013-06-04 09:24:00,67.6,66.0,29.87,ESE,115,10.0,19.0,93,0.00,,,0.69,weatherlink.com 1.10,2013-06-04 14:24:00,
2013-06-04 09:39:00,67.2,65.0,29.79,SSE,163,21.0,36.0,93,0.01,,,0.70,weatherlink.com 1.10,2013-06-04 14:39:00,
2013-06-04 09:54:00,67.2,65.0,29.81,SSE,154,10.0,30.0,92,0.03,,,0.72,weatherlink.com 1.10,2013-06-04 14:54:00,
2013-06-04 10:09:00,68.1,65.0,29.82,ESE,120,13.0,22.0,90,0.05,,,0.74,weatherlink.com 1.10,2013-06-04 15:09:00,
2013-06-04 10:24:00,68.6,66.0,29.83,East,99,0.0,19.0,91,0.05,,,0.74,weatherlink.com 1.10,2013-06-04 15:24:00,
2013-06-04 10:39:00,69.2,67.0,29.83,East,86,0.0,7.0,91,0.04,,,0.74,weatherlink.com 1.10,2013-06-04 15:39:00,
2013-06-04 10:54:00,70.9,68.0,29.83,ESE,119,7.0,13.0,91,0.01,,,0.74,weatherlink.com 1.10,2013-06-04 15:54:00,
2013-06-04 11:09:00,71.6,68.0,29.83,SE,126,9.0,17.0,87,0.00,,,0.74,weatherlink.com 1.10,2013-06-04 16:09:00,
2013-06-04 11:24:00,73.8,69.0,29.82,SE,132,11.0,16.0,84,0.00,,,0.74,weatherlink.com 1.10,2013-06-04 16:24:00,
2013-06-04 11:39:00,75.1,68.0,29.82,SE,146,16.0,21.0,79,0.00,,,0.74,weatherlink.com 1.10,2013-06-04 16:39:00,
2013-06-04 11:54:00,76.3,69.0,29.82,SE,130,9.0,21.0,78,0.00,,,0.74,weatherlink.com 1.10,2013-06-04 16:54:00,
2013-06-04 12:09:00,77.3,69.0,29.80,SSE,155,8.0,21.0,76,0.00,,,0.74,weatherlink.com 1.10,2013-06-04 17:09:00,
2013-06-04 12:24:00,78.9,70.0,29.80,SSE,153,7.0,22.0,75,0.00,,,0.74,weatherlink.com 1.10,2013-06-04 17:24:00,
2013-06-04 12:39:00,79.4,69.0,29.79,SE,141,15.0,24.0,71,0.00,,,0.74,weatherlink.com 1.10,2013-06-04 17:39:00,
2013-06-04 12:54:00,80.1,70.0,29.78,South,189,11.0,19.0,71,0.00,,,0.74,weatherlink.com 1.10,2013-06-04 17:54:00,
2013-06-04 13:09:00,81.1,70.0,29.77,SSE,155,4.0,14.0,69,0.00,,,0.74,weatherlink.com 1.10,2013-06-04 18:09:00,
2013-06-04 13:24:00,82.1,71.0,29.77,SE,141,14.0,16.0,70,0.00,,,0.74,weatherlink.com 1.10,2013-06-04 18:24:00,
2013-06-04 13:40:00,82.6,71.0,29.76,SSW,200,7.0,13.0,67,0.00,,,0.74,weatherlink.com 1.10,2013-06-04 18:40:00,
2013-06-04 13:55:00,83.4,70.0,29.76,SSE,168,7.0,17.0,65,0.00,,,0.74,weatherlink.com 1.10,2013-06-04 18:55:00,
2013-06-04 14:10:00,83.7,70.0,29.76,South,179,5.0,15.0,64,0.00,,,0.74,weatherlink.com 1.10,2013-06-04 19:10:00,
2013-06-04 14:25:00,83.6,70.0,29.75,SE,138,6.0,21.0,64,0.00,,,0.74,weatherlink.com 1.10,2013-06-04 19:25:00,
2013-06-04 14:40:00,84.1,71.0,29.76,SSW,193,10.0,19.0,65,0.00,,,0.74,weatherlink.com 1.10,2013-06-04 19:40:00,
2013-06-04 14:55:00,84.3,71.0,29.76,SSE,155,8.0,15.0,65,0.00,,,0.74,weatherlink.com 1.10,2013-06-04 19:55:00,
2013-06-04 15:10:00,84.8,71.0,29.76,South,177,8.0,16.0,64,0.00,,,0.74,weatherlink.com 1.10,2013-06-04 20:10:00,
2013-06-04 15:25:00,85.0,71.0,29.76,SE,141,10.0,12.0,63,0.00,,,0.74,weatherlink.com 1.10,2013-06-04 20:25:00,
2013-06-04 15:40:00,85.0,71.0,29.76,SE,132,11.0,18.0,64,0.00,,,0.74,weatherlink.com 1.10,2013-06-04 20:40:00,
2013-06-04 15:55:00,85.0,71.0,29.76,SSE,153,7.0,18.0,64,0.00,,,0.74,weatherlink.com 1.10,2013-06-04 20:55:00,
2013-06-04 16:10:00,84.9,70.0,29.75,ESE,115,13.0,19.0,62,0.00,,,0.74,weatherlink.com 1.10,2013-06-04 21:10:00,
2013-06-04 16:25:00,85.0,71.0,29.76,SE,136,12.0,20.0,63,0.00,,,0.74,weatherlink.com 1.10,2013-06-04 21:25:00,
2013-06-04 16:40:00,85.1,71.0,29.76,ESE,107,9.0,20.0,62,0.00,,,0.74,weatherlink.com 1.10,2013-06-04 21:40:00,
2013-06-04 16:55:00,85.0,70.0,29.76,SE,141,7.0,16.0,62,0.00,,,0.74,weatherlink.com 1.10,2013-06-04 21:55:00,
2013-06-04 17:10:00,85.4,72.0,29.76,SE,145,9.0,10.0,65,0.00,,,0.74,weatherlink.com 1.10,2013-06-04 22:10:00,
2013-06-04 17:25:00,85.2,71.0,29.76,SE,136,11.0,12.0,63,0.00,,,0.74,weatherlink.com 1.10,2013-06-04 22:25:00,
2013-06-04 17:40:00,86.3,72.0,29.76,ESE,120,5.0,10.0,62,0.00,,,0.74,weatherlink.com 1.10,2013-06-04 22:40:00,
2013-06-04 17:55:00,85.8,72.0,29.76,ESE,119,5.0,12.0,64,0.00,,,0.74,weatherlink.com 1.10,2013-06-04 22:55:00,
2013-06-04 18:10:00,85.7,73.0,29.75,SE,132,6.0,12.0,65,0.00,,,0.74,weatherlink.com 1.10,2013-06-04 23:10:00,
2013-06-04 18:25:00,86.0,73.0,29.75,SE,136,6.0,12.0,65,0.00,,,0.74,weatherlink.com 1.10,2013-06-04 23:25:00,
2013-06-04 18:40:00,85.2,73.0,29.75,ESE,113,15.0,15.0,66,0.00,,,0.74,weatherlink.com 1.10,2013-06-04 23:40:00,
2013-06-04 18:55:00,84.4,72.0,29.75,East,101,11.0,16.0,67,0.00,,,0.74,weatherlink.com 1.10,2013-06-04 23:55:00,
2013-06-04 19:10:00,84.1,72.0,29.74,SE,144,10.0,16.0,68,0.00,,,0.74,weatherlink.com 1.10,2013-06-05 00:10:00,
2013-06-04 19:25:00,83.7,72.0,29.74,ESE,120,13.0,16.0,68,0.00,,,0.74,weatherlink.com 1.10,2013-06-05 00:25:00,
2013-06-04 19:40:00,83.3,72.0,29.75,SE,133,10.0,17.0,69,0.00,,,0.74,weatherlink.com 1.10,2013-06-05 00:40:00,
2013-06-04 19:55:00,82.7,72.0,29.75,ESE,105,9.0,14.0,71,0.00,,,0.74,weatherlink.com 1.10,2013-06-05 00:55:00,
2013-06-04 20:10:00,82.1,73.0,29.75,ESE,110,8.0,13.0,73,0.00,,,0.74,weatherlink.com 1.10,2013-06-05 01:10:00,
2013-06-04 20:25:00,81.2,73.0,29.75,ESE,107,10.0,12.0,75,0.00,,,0.74,weatherlink.com 1.10,2013-06-05 01:25:00,
2013-06-04 20:40:00,80.7,73.0,29.75,ESE,105,11.0,15.0,76,0.00,,,0.74,weatherlink.com 1.10,2013-06-05 01:40:00,
2013-06-04 20:55:00,80.1,72.0,29.75,ESE,105,9.0,14.0,76,0.00,,,0.74,weatherlink.com 1.10,2013-06-05 01:55:00,
2013-06-04 21:10:00,79.9,71.0,29.75,ESE,107,11.0,16.0,75,0.00,,,0.74,weatherlink.com 1.10,2013-06-05 02:10:00,
2013-06-04 21:25:00,79.5,71.0,29.76,ESE,116,12.0,15.0,75,0.00,,,0.74,weatherlink.com 1.10,2013-06-05 02:25:00,
2013-06-04 21:40:00,79.1,71.0,29.76,ESE,113,11.0,13.0,76,0.00,,,0.74,weatherlink.com 1.10,2013-06-05 02:40:00,
2013-06-04 21:55:00,78.8,71.0,29.78,ESE,110,7.0,14.0,76,0.00,,,0.74,weatherlink.com 1.10,2013-06-05 02:55:00,
2013-06-04 22:10:00,78.4,71.0,29.78,ESE,105,7.0,11.0,77,0.00,,,0.74,weatherlink.com 1.10,2013-06-05 03:10:00,
2013-06-04 22:25:00,77.8,71.0,29.79,ESE,115,9.0,11.0,79,0.00,,,0.74,weatherlink.com 1.10,2013-06-05 03:25:00,
2013-06-04 22:40:00,77.3,71.0,29.80,ESE,103,9.0,14.0,81,0.00,,,0.74,weatherlink.com 1.10,2013-06-05 03:40:00,
2013-06-04 22:55:00,76.6,71.0,29.80,ESE,105,9.0,14.0,83,0.00,,,0.74,weatherlink.com 1.10,2013-06-05 03:55:00,
2013-06-04 23:10:00,76.4,71.0,29.80,ESE,105,10.0,16.0,84,0.00,,,0.74,weatherlink.com 1.10,2013-06-05 04:10:00,
2013-06-04 23:25:00,76.3,71.0,29.80,ESE,112,9.0,14.0,84,0.00,,,0.74,weatherlink.com 1.10,2013-06-05 04:25:00,
2013-06-04 23:40:00,76.2,71.0,29.79,East,96,8.0,15.0,83,0.00,,,0.74,weatherlink.com 1.10,2013-06-05 04:40:00,
2013-06-04 23:55:00,75.9,71.0,29.79,ESE,119,14.0,15.0,84,0.00,,,0.74,weatherlink.com 1.10,2013-06-05 04:55:00,